Location: Hopville
(44.8032°N, 123.1329°W)
Time: 16:54:54
(UTC+00:00)

Cosmos 2150 Rocket - Pass Details

Date: 24 January 2021
Orbit: 748 x 808 km, 74.0° (Epoch: 01 March)

Event Time Altitude Azimuth Distance (km) Brightness Sun altitude
Exits shadow 14:34:49 - 332° (NNW) 2,857 6.6 -11.6°
Reaches altitude 10° 14:36:09 10° 329° (NNW) 2,352 6.1 -11.3°
Maximum altitude 14:41:17 49° 256° (WSW) 1,022 4.3 -10.5°
Drops below altitude 10° 14:46:28 10° 182° (S) 2,369 6.7 -9.6°
Sets 14:48:56 0° 177° (S) 3,301 7.6 -9.2°
